User: anonymous   Login
Location: Olsztyn
(53.7767°N, 20.4765°E)
Time: 20:40:51
(UTC+01:00)
Language:

Hubble Space Telescope - Orbit

View from above orbital plane
View from above orbital plane
View from above satellite
View from above satellite

Ground track
Ground track

The orbit data is extracted from the following two-line orbital elements,

1 20580U 90037B   22019.55333363  .00001730  00000-0  93041-4 0  9991
2 20580  28.4709  74.9306 0002402 226.6417 277.9856 15.09954824543689
Epoch (UTC): 19 January 2022 13:16:48
Eccentricity: 0.0002402
inclination: 28.4709°
perigee height: 534 km
apogee height: 538 km
right ascension of ascending node: 74.9306°
argument of perigee: 226.6417°
revolutions per day: 15.09954824
mean anomaly at epoch: 277.9856°
orbit number at epoch: 54368

The dashed part of the orbit path shows where the satellite is in the earth's shadow,  

DLR